CDT,Max TemperatureF,Mean TemperatureF,Min TemperatureF,Max Dew PointF,MeanDew PointF,Min DewpointF,Max Humidity, Mean Humidity, Min Humidity, Max Sea Level PressureIn, Mean Sea Level PressureIn, Min Sea Level PressureIn, Max VisibilityMiles, Mean VisibilityMiles, Min VisibilityMiles, Max Wind SpeedMPH, Mean Wind SpeedMPH, Max Gust SpeedMPH,PrecipitationIn, CloudCover, Events, WindDirDegrees
2012-10-1,78,69,60,59,54,48,90,64,38,29.79,29.74,29.72,10,10,9,17,7,24,0.01,2,Rain,344
2012-10-2,77,67,56,57,52,42,93,62,31,29.95,29.89,29.79,10,10,9,10,4,15,0.00,0,,304
2012-10-3,81,71,60,57,55,53,84,62,39,30.08,30.01,29.95,10,10,10,12,5,18,0.00,1,,173
2012-10-4,85,71,57,61,57,50,87,59,31,30.19,30.13,30.08,10,10,10,14,6,18,0.00,0,,153
2012-10-5,86,73,59,73,64,56,87,69,51,30.10,30.05,29.94,10,10,8,18,9,25,0.02,4,Rain,210
2012-10-6,59,53,47,56,44,36,93,74,54,30.25,30.16,30.09,10,10,10,18,11,25,T,8,Rain,45
2012-10-7,60,53,45,47,40,34,93,65,37,30.30,30.24,30.18,10,10,9,15,6,21,0.07,5,Rain,43
2012-10-8,62,51,40,47,43,40,100,73,46,30.28,30.21,30.12,10,8,0,9,3,13,0.00,3,Fog,139
2012-10-9,73,57,40,62,52,40,100,79,57,30.13,30.04,29.92,10,10,6,16,5,20,0.00,5,,169
2012-10-10,69,66,62,61,58,53,93,78,63,30.20,30.13,30.03,10,10,10,15,7,22,0.00,8,,68
2012-10-11,84,72,60,68,56,50,84,70,55,30.20,30.16,30.11,10,10,10,14,6,17,0.00,6,,138
2012-10-12,82,73,64,70,66,64,97,78,58,30.22,30.16,30.13,10,8,5,10,5,14,T,3,,162
2012-10-13,84,74,63,69,66,63,100,78,55,30.15,30.07,29.89,10,8,4,22,11,30,0.00,5,,159
2012-10-14,83,70,57,67,61,52,100,69,37,30.05,29.96,29.88,10,8,2,28,9,39,0.93,4,Rain-Thunderstorm,253
2012-10-15,82,67,52,55,50,43,93,60,26,30.10,30.03,29.96,10,10,10,8,3,14,0.00,0,,198
2012-10-16,70,63,56,58,54,50,86,74,61,29.99,29.87,29.75,10,10,10,14,7,21,0.00,1,,186
2012-10-17,82,71,60,68,61,54,97,77,56,29.75,29.65,29.53,10,10,9,24,12,36,0.00,3,,215
2012-10-18,76,63,50,54,39,25,96,56,16,29.95,29.88,29.75,10,10,10,20,7,24,0.02,0,,283
2012-10-19,74,62,49,37,32,28,51,35,19,29.94,29.89,29.86,10,10,10,24,10,31,0.00,1,,264
2012-10-20,83,64,44,52,45,37,92,59,26,29.94,29.88,29.82,10,10,10,16,7,21,0.00,1,,192
2012-10-21,83,76,68,70,64,54,84,71,57,30.00,29.93,29.87,10,10,10,17,11,23,0.00,5,,172
2012-10-22,81,75,68,67,66,60,93,78,62,30.06,30.01,29.96,10,10,10,16,9,21,0.00,4,,173
2012-10-23,81,74,67,66,65,61,93,76,58,30.05,29.99,29.94,10,10,10,13,8,22,0.00,4,,175
2012-10-24,82,73,64,67,65,63,100,78,55,30.06,29.98,29.90,10,8,0,15,8,21,0.00,2,Fog,177
2012-10-25,84,71,58,70,65,54,93,76,58,30.00,29.91,29.85,10,10,10,18,9,24,0.01,6,,210
2012-10-26,58,51,43,50,47,39,100,86,71,30.26,30.14,30.05,10,7,2,20,9,29,0.71,7,Rain-Thunderstorm,23
2012-10-27,58,49,40,38,34,31,86,61,36,30.29,30.21,30.13,10,10,10,14,6,21,0.00,0,,6
2012-10-28,60,47,34,37,33,27,92,60,27,30.28,30.22,30.19,10,10,10,12,4,21,0.00,0,,4
2012-10-29,62,48,34,38,34,31,100,65,30,30.34,30.24,30.14,10,10,10,9,2,13,0.00,0,,42
2012-10-30,70,54,38,45,40,36,92,64,36,30.14,30.04,29.96,10,10,9,10,4,13,0.00,0,,212
2012-10-31,75,61,47,51,48,45,93,66,38,29.99,29.97,29.94,10,10,9,12,4,14,0.00,0,,220